Location: Splawn
(30.9202°N, 96.9858°W)
Time: 05:37:59
(UTC+00:00)

Tiros 1 despin weight - All Passes

Search period start: 24 February 2020 00:00
Search period end: 05 March 2020 00:00
Orbit: 594 x 642 km, 48.2° (Epoch: 23 February)

Date Brightness Start Highest point End Pass type
(mag) Time Alt. Az. Time Alt. Az. Time Alt. Az.
24 Feb - 04:03:35 10° S 04:07:02 21° SE 04:10:26 10° E night (unlit)
24 Feb - 05:43:58 10° WSW 05:48:19 49° NW 05:52:39 10° NE night (unlit)
24 Feb - 07:28:37 10° NW 07:30:40 13° NNW 07:32:44 10° N night (unlit)
24 Feb - 10:54:24 10° NNW 10:57:05 16° NNE 10:59:46 10° ENE visible
24 Feb - 12:34:49 10° NW 12:39:13 71° NE 12:43:38 10° SE visible
24 Feb - 14:18:01 10° W 14:20:20 14° SW 14:22:39 10° SSW daylight
25 Feb - 04:19:01 10° SSW 04:23:22 48° SE 04:27:41 10° ENE night (unlit)
25 Feb - 06:01:14 10° W 06:05:03 27° NNW 06:08:50 10° NNE night (unlit)
25 Feb - 11:10:21 10° NNW 11:14:00 25° NNE 11:17:40 10° E visible
25 Feb - 12:51:25 10° WNW 12:55:42 51° SW 13:00:01 10° SSE daylight
26 Feb - 02:56:33 10° SSE 02:58:44 13° SE 03:00:55 10° E night (unlit)
26 Feb - 04:35:20 10° SW 04:39:51 77° NW 04:44:20 10° NE night (unlit)
26 Feb - 06:19:05 10° WNW 06:21:56 16° NNW 06:24:48 10° NNE night (unlit)
26 Feb - 09:46:28 10° N 09:48:21 12° NNE 09:50:14 10° NE visible
26 Feb - 11:26:29 10° NW 11:30:45 46° NE 11:35:00 10° ESE visible
26 Feb - 13:08:36 10° W 13:12:03 23° SW 13:15:31 10° S daylight
27 Feb - 03:11:03 10° SSW 03:15:01 30° SE 03:18:58 10° ENE night (unlit)
27 Feb - 04:52:16 10° WSW 04:56:28 37° NW 05:00:38 10° NE night (unlit)
27 Feb - 06:37:38 10° NW 06:39:00 11° NNW 06:40:24 10° N night (unlit)
27 Feb - 10:02:13 10° NNW 10:05:22 19° NNE 10:08:30 10° ENE visible
27 Feb - 11:42:54 10° NW 11:47:19 83° SW 11:51:44 10° SE visible
28 Feb - 03:26:54 10° SW 03:31:25 69° SE 03:35:53 10° NE night (unlit)
28 Feb - 05:09:47 10° W 05:13:16 22° NNW 05:16:44 10° NNE night (unlit)
28 Feb - 08:39:01 10° N 08:39:34 10° NNE 08:40:06 10° NNE night (unlit)
28 Feb - 10:18:15 10° NNW 10:22:13 32° NNE 10:26:10 10° E visible
28 Feb - 11:59:42 10° WNW 12:03:45 36° SW 12:07:47 10° SSE visible
29 Feb - 02:03:28 10° S 02:06:42 19° SE 02:09:56 10° E visible
29 Feb - 03:43:29 10° WSW 03:47:57 56° NW 03:52:23 10° NE night (unlit)
29 Feb - 05:27:52 10° NW 05:30:15 14° NNW 05:32:36 10° NNE night (unlit)
29 Feb - 08:54:11 10° NNW 08:56:41 15° NNE 08:59:09 10° NE night (unlit)
29 Feb - 10:34:30 10° NW 10:38:53 63° NE 10:43:15 10° ESE visible
29 Feb - 12:17:21 10° W 12:20:02 16° SW 12:22:44 10° SSW visible
01 Mar - 02:18:42 10° SSW 02:23:02 42° SE 02:27:18 10° ENE visible
01 Mar - 04:00:40 10° W 04:04:39 29° NNW 04:08:36 10° NNE night (unlit)
01 Mar - 09:10:04 10° NNW 09:13:37 23° NNE 09:17:09 10° E night (unlit)
01 Mar - 10:51:03 10° WNW 10:55:23 59° SW 10:59:43 10° SE visible
02 Mar - 00:56:45 10° SSE 00:58:25 12° SE 01:00:05 10° ESE visible
02 Mar - 02:34:54 10° SW 02:39:29 86° NW 02:44:01 10° NE visible
02 Mar - 04:18:25 10° WNW 04:21:32 18° NNW 04:24:37 10° NNE night (unlit)
02 Mar - 07:46:17 10° N 07:47:55 12° NNE 07:49:33 10° NE night (unlit)
02 Mar - 09:26:12 10° NW 09:30:24 41° NE 09:34:34 10° ESE visible
02 Mar - 11:08:07 10° WNW 11:11:45 25° SW 11:15:23 10° S visible
03 Mar - 01:10:49 10° S 01:14:41 27° SE 01:18:31 10° ENE visible
03 Mar - 02:51:45 10° WSW 02:56:05 42° NW 03:00:23 10° NE visible
03 Mar - 04:36:46 10° NW 04:38:33 12° NNW 04:40:21 10° N night (unlit)
03 Mar - 08:01:57 10° NNW 08:04:58 17° NNE 08:07:57 10° ENE night (unlit)
03 Mar - 09:42:34 10° NW 09:47:00 87° NE 09:51:24 10° SE night (unlit)
03 Mar - 11:26:53 10° WSW 11:28:00 11° SW 11:29:07 10° SW visible
04 Mar - 01:26:32 10° SW 01:31:03 60° SE 01:35:32 10° ENE visible
04 Mar - 03:09:09 10° W 03:12:51 24° NNW 03:16:30 10° NNE visible
04 Mar - 08:17:57 10° NNW 08:21:50 29° NNE 08:25:41 10° E night (unlit)
04 Mar - 09:59:17 10° WNW 10:03:26 41° SW 10:07:34 10° SSE night (unlit)
